User: anonymous   Login
Location: Santa Barbara
(34.4500°N, 119.7700°W)
Time: 04:55:10
(UTC-07:00)
Language:

Cosmos 1892 Rocket - Orbit

View from above orbital plane
View from above orbital plane
View from above satellite
View from above satellite

Ground track
Ground track

The orbit data is extracted from the following two-line orbital elements,

1 18422U 87088B   15241.50423855  .00000229  00000-0  25307-4 0  9997
2 18422 082.5090 073.0852 0021254 085.6383 332.5228 14.82758346504355
Epoch (UTC): 29 August 2015 12:06:06
Eccentricity: 0.0021254
inclination: 82.5090°
perigee height: 606 km
apogee height: 635 km
right ascension of ascending node: 73.0852°
argument of perigee: 85.6383°
revolutions per day: 14.82758346
mean anomaly at epoch: 332.5228°
orbit number at epoch: 50435

The dashed part of the orbit path shows where the satellite is in the earth's shadow,  

DLR